Regional Weather Roundup
Issued by NWS Cleveland, OH

Home | Current Version | Previous Version | Graphics & Text | Print | Product List | Glossary On
Versions: 1 2 3 4 5 6 7 8 9 10 11 12 13 14 15 16 17 18 19 20 21 22 23 24 25 26 27 28 29 30 31 32 33 34 35 36 37 38 39 40 41 42 43 44 45 46 47 48 49 50
000
ASUS41 KCLE 122310
RWRCLE
OHIO REGIONAL WEATHER ROUNDUP
NATIONAL WEATHER SERVICE CLEVELAND, OH
700 PM EDT SAT JUL 12 2014

NOTE: "FAIR" INDICATES FEW OR NO CLOUDS BELOW 12,000 FEET WITH NO
SIGNIFICANT WEATHER AND/OR OBSTRUCTIONS TO VISIBILITY.

OHZ001>008-015>018-024>027-034-035-043-044-130000-
   NORTHWEST OHIO

CITY           SKY/WX    TMP DP  RH WIND       PRES   REMARKS
DEFIANCE       CLOUDY    82  67  60 SW8       30.03S
FINDLAY        CLOUDY    82  68  62 SW15      30.03S
TOLEDO EXPRESS CLOUDY    81  68  64 SW12      30.02R
TOLEDO EXEC    CLOUDY    83  65  54 S13       30.02R
LIMA           CLOUDY    82  68  62 SW14      30.05F
$$

OHZ009>014-019>023-028>033-038-089-130000-
   NORTHEAST OHIO

CITY           SKY/WX    TMP DP  RH WIND       PRES   REMARKS
CLE-HOPKINS    PTSUNNY   81  61  50 S10       30.05F
CLE-LAKEFRONT  PTSUNNY   80  62  54 CALM      30.01F
CUY CO. ARPT   NOT AVBL
LORAIN-ELYRIA  PTSUNNY   85  61  44 S9        30.03F
ASHTABULA      PTSUNNY   81  62  52 S5        30.07F
AKRON-CANTON   CLOUDY    82  60  47 SW10      30.08F
WOOSTER        PTSUNNY   80  63  55 S5        30.07F
MANSFIELD      CLOUDY    80  62  54 SE12      30.06F
YOUNGSTOWN     CLOUDY    81  63  54 CALM      30.08F
$$

OHZ042-051>053-060>062-070>072-077>081-130000-
  SOUTHWEST OHIO

CITY           SKY/WX    TMP DP  RH WIND       PRES   REMARKS
CINC-COVINGTON CLOUDY    82  66  58 S9        30.09F
CINC-LUNKEN    CLOUDY    83  67  58 S12       30.06F
HAMILTON       CLOUDY    84  68  58 SW6       30.07F
DAYTON         CLOUDY    81  67  62 SW14      30.08S
WRIGHT-PAT AFB NOT AVBL
DAYTON GENERAL CLOUDY    82  67  60 SW12G18   30.07S
WILMINGTON     CLOUDY    81  66  60 S13       30.07F
$$

OHZ036-037-039>041-045>050-054>059-063>069-073>076-082>088-130000-
  CENTRAL AND SOUTHEAST OHIO

CITY           SKY/WX    TMP DP  RH WIND       PRES   REMARKS
COLUMBUS       CLOUDY    85  61  44 S9        30.05F
OSU AIRPORT    CLOUDY    83  63  50 S10       30.06F
BOLTON FIELD   SUNNY     82  66  57 S10       30.06F
RICKENBACK AFB CLOUDY    84  60  42 S10       30.05F
NEWARK         CLOUDY    82  61  48 S7        30.06F
MARION         CLOUDY    82  64  54 S9        30.06R
LANCASTER      CLOUDY    82  64  54 S7        30.07F
ZANESVILLE     CLOUDY    81  63  54 S6        30.08F
NEW PHILLY     CLOUDY    81  65  58 SW3       30.08F
$$



USA.gov is the U.S. government's official web portal to all federal, state and local government web resources and services.